Date,TemperatureHighF,TemperatureAvgF,TemperatureLowF,DewpointHighF,DewpointAvgF,DewpointLowF,HumidityHigh,HumidityAvg,HumidityLow,PressureMaxIn,PressureMinIn,WindSpeedMaxMPH,WindSpeedAvgMPH,GustSpeedMaxMPH,PrecipitationSumIn
2013-1-1,29.7,25.1,14.9,23.9,18.9,10.3,86,77,64,30.01,29.89,10,3,12,0.00
2013-1-2,23.5,13.7,5.6,10.5,5.2,0.2,85,69,55,30.10,30.00,12,4,17,0.00
2013-1-3,29.7,22.7,13.6,23.4,14.7,3.7,82,71,59,30.11,29.99,17,8,22,0.00
2013-1-4,28.2,20.2,11.6,20.7,14.2,6.1,83,77,70,30.14,30.06,22,11,30,0.00
2013-1-5,34.0,28.0,20.6,28.1,21.8,16.0,86,78,66,30.13,29.89,19,6,21,0.00
2013-1-6,35.3,30.2,23.5,29.8,24.2,17.7,87,78,75,30.17,29.78,19,10,24,0.00
2013-1-7,35.0,26.6,17.8,24.1,20.3,14.9,89,77,63,30.25,30.01,17,5,25,0.00
2013-1-8,40.8,32.4,25.8,27.4,23.9,20.1,80,71,57,30.08,29.96,10,3,13,0.00
2013-1-9,45.2,39.6,32.7,33.9,28.8,20.0,77,65,45,30.32,29.92,21,8,25,0.00
2013-1-10,39.9,33.0,23.9,36.5,26.0,19.2,92,76,60,30.35,29.86,17,5,18,0.48
2013-1-11,53.9,49.6,38.8,50.9,45.4,36.4,94,86,73,29.86,29.54,20,8,26,0.32
2013-1-12,58.6,51.9,40.1,48.5,45.9,37.7,92,80,67,29.76,29.61,20,7,25,0.33
2013-1-13,39.9,32.4,17.8,37.5,29.6,11.8,93,89,77,30.04,29.58,21,10,25,0.36
2013-1-14,21.6,17.3,12.9,15.2,11.7,7.3,86,78,74,30.32,30.05,17,4,20,0.00
2013-1-15,30.9,22.0,12.8,19.9,15.8,8.9,86,77,59,30.28,29.98,10,2,12,0.00
2013-1-16,35.2,28.4,21.1,26.1,20.5,16.6,88,73,49,29.97,29.75,21,8,27,0.00
2013-1-17,34.7,29.4,21.3,26.1,19.3,11.7,84,66,47,30.23,29.88,25,8,26,0.00
2013-1-18,38.6,29.0,18.9,24.4,17.8,10.7,78,63,48,30.30,29.87,27,9,34,0.00
2013-1-19,48.9,42.0,36.8,34.0,29.2,24.2,73,60,51,29.87,29.62,34,16,36,0.01
2013-1-20,40.8,22.7,17.7,29.8,7.6,3.3,65,52,41,30.10,29.65,37,12,45,0.00
2013-1-21,17.8,12.2,5.6,5.2,-1.8,-8.5,67,53,37,30.10,29.96,30,14,36,0.00
2013-1-22,11.9,6.8,2.0,-3.7,-6.9,-9.9,66,53,41,30.23,30.10,19,10,22,0.00
2013-1-23,20.2,14.7,9.2,12.9,2.9,-3.3,82,59,45,30.20,29.95,18,8,31,0.00
2013-1-24,23.0,16.2,7.7,13.3,4.7,-2.6,84,62,34,30.47,30.02,19,4,22,0.00
2013-1-25,26.0,21.2,17.7,19.5,13.4,5.9,83,72,57,30.27,29.86,16,5,17,0.00
2013-1-26,27.6,23.7,19.7,18.2,15.2,11.4,76,70,59,30.27,29.92,15,5,20,0.00
2013-1-27,34.3,27.1,20.0,32.0,20.2,13.2,91,75,62,30.27,29.86,16,4,18,0.15
2013-1-28,49.1,45.3,34.6,48.6,44.4,32.2,100,97,91,29.87,29.73,24,7,25,0.11
2013-1-29,58.7,55.4,48.6,55.4,53.7,48.6,100,94,88,29.75,29.19,20,9,25,0.67
2013-1-30,57.6,44.0,26.0,54.7,41.5,19.5,100,91,76,29.36,29.02,27,10,36,0.58
2013-1-31,25.7,17.6,7.9,19.2,9.3,-0.3,83,69,58,29.93,29.36,31,17,42,0.00
2013-2-1,15.4,8.9,2.8,6.7,-0.2,-5.3,74,66,57,30.24,29.93,24,12,30,0.00
2013-2-2,24.5,19.9,15.4,19.7,15.3,7.1,87,82,69,30.09,29.82,16,7,18,0.00
2013-2-3,20.8,15.3,9.3,13.9,9.0,2.4,81,76,68,29.92,29.80,17,6,20,0.00
2013-2-4,30.4,23.8,19.2,22.7,19.0,13.2,89,81,71,29.91,29.66,9,3,11,0.02
2013-2-5,31.3,25.9,16.2,28.6,20.9,13.3,91,82,64,29.86,29.65,14,5,20,0.00
2013-2-6,37.2,31.3,25.6,24.5,21.5,18.0,80,67,51,30.10,29.87,11,2,13,0.00
2013-2-7,47.0,36.4,29.7,36.2,29.2,24.2,93,76,59,30.04,29.62,12,4,16,0.07
2013-2-8,38.0,32.1,27.2,36.2,25.2,19.1,94,76,62,30.20,29.63,26,11,33,0.00
2013-2-9,37.3,29.4,20.6,24.1,21.1,17.3,88,72,56,30.26,30.01,10,2,13,0.00
2013-2-10,49.6,39.7,31.8,46.3,32.5,21.4,92,75,63,30.00,29.44,19,6,25,0.11
2013-2-11,49.6,36.5,30.4,45.3,27.1,20.1,87,69,61,29.84,29.42,34,18,44,0.02
2013-2-12,32.8,29.2,27.0,23.2,21.2,19.2,76,72,66,29.95,29.79,22,8,31,0.00
2013-2-13,44.2,32.6,20.5,30.0,24.6,17.5,91,73,52,29.79,29.58,14,3,18,0.00
2013-2-14,40.6,36.1,33.1,33.3,28.8,20.4,85,75,56,29.80,29.57,37,10,37,0.00
2013-2-15,32.9,28.4,22.5,24.6,19.4,12.3,85,69,49,30.01,29.79,20,5,20,0.00
2013-2-16,24.1,19.3,14.6,17.3,9.7,0.3,81,66,43,30.00,29.93,21,8,25,0.00
2013-2-17,29.5,20.0,11.4,13.4,7.1,2.9,79,58,36,30.08,29.97,12,4,16,0.00
2013-2-18,53.2,38.7,24.2,42.2,26.8,12.1,85,63,52,29.97,29.32,19,8,31,0.16
2013-2-19,44.8,20.5,14.3,41.2,13.8,6.3,90,75,63,29.96,29.29,36,17,46,0.03
2013-2-20,21.3,16.1,9.5,15.2,7.5,2.2,78,68,60,30.19,29.96,20,10,25,0.00
2013-2-21,27.3,24.2,21.0,18.2,16.4,14.3,82,72,62,30.21,29.90,22,7,22,0.00
2013-2-22,33.4,28.3,21.8,33.4,25.4,17.8,100,89,72,29.89,29.69,22,9,26,0.04
2013-2-23,29.0,26.5,24.7,21.6,19.0,16.2,81,73,61,29.82,29.76,20,9,24,0.00
2013-2-24,37.3,27.7,18.9,22.1,19.3,14.6,85,71,52,30.00,29.81,11,4,19,0.00
2013-2-25,43.5,32.7,21.4,27.6,23.6,18.3,89,71,49,30.04,29.81,14,4,16,0.01
2013-2-26,34.3,32.9,31.5,32.0,27.9,22.9,96,82,65,29.80,29.28,24,9,27,0.51
2013-2-27,32.9,31.9,30.6,32.9,31.8,30.6,100,100,96,29.47,29.29,20,7,20,0.14
2013-2-28,37.6,33.6,30.6,32.8,30.0,26.7,100,87,72,29.82,29.46,18,8,19,0.02
2013-3-1,33.1,30.3,26.1,28.1,24.1,18.3,92,78,66,29.96,29.81,14,7,17,0.00
2013-3-2,32.1,28.2,25.3,20.2,17.5,14.6,74,64,53,29.96,29.91,18,9,22,0.00
2013-3-3,32.2,26.8,23.2,20.9,16.9,8.8,85,67,41,29.95,29.89,16,6,17,0.00
2013-3-4,39.2,28.0,17.2,26.7,18.2,13.5,89,68,43,29.99,29.86,11,3,13,0.00
2013-3-5,32.5,29.9,26.6,28.6,26.6,23.7,96,87,70,29.87,29.56,19,9,22,0.01
2013-3-6,34.0,30.0,26.0,29.0,25.9,22.8,95,85,71,30.09,29.66,20,10,25,0.06
2013-3-7,35.6,32.2,26.3,28.9,25.0,20.0,91,76,56,30.25,30.09,13,4,13,0.01
2013-3-8,41.8,28.9,12.9,27.3,19.4,9.2,89,69,44,30.35,30.22,6,1,9,0.00
2013-3-9,43.8,36.1,26.6,32.5,26.9,18.8,75,69,57,30.22,29.77,13,6,18,0.00
2013-3-10,61.8,52.2,43.9,43.3,37.2,32.1,66,57,45,29.76,29.52,13,4,20,0.03
2013-3-11,52.8,43.2,33.1,48.6,39.5,27.3,95,87,66,29.64,29.40,14,1,25,0.06
2013-3-12,35.6,31.7,29.5,28.1,24.6,21.0,86,75,55,29.79,29.64,0,0,0,0.00
2013-3-13,30.9,28.0,25.6,15.0,11.7,6.9,62,50,38,30.15,30.05,0,0,0,0.00
2013-3-14,39.5,30.2,22.4,28.8,18.5,13.5,86,63,38,30.18,29.97,0,0,0,0.00
2013-3-15,46.7,37.3,29.4,39.7,32.5,26.6,91,83,60,29.97,29.59,7,0,11,0.11
2013-3-16,41.2,36.1,29.1,38.8,32.6,21.5,96,87,73,29.93,29.43,0,0,0,0.00
2013-3-17,38.5,31.1,28.5,22.9,21.3,19.1,75,67,48,30.03,29.88,0,0,0,0.00
2013-3-18,35.9,31.5,28.1,34.3,27.3,19.9,94,85,69,29.88,29.42,0,0,0,0.02
2013-3-19,35.9,27.4,20.6,20.9,13.5,9.7,72,56,36,29.91,29.62,7,0,33,0.00
2013-3-20,29.1,24.1,19.4,15.1,9.1,0.6,73,53,32,29.91,29.83,0,0,0,0.00
2013-3-21,33.8,23.7,14.3,13.9,10.2,6.0,82,58,32,29.87,29.82,6,0,10,0.00
2013-3-22,42.5,29.9,19.7,18.5,14.5,11.6,78,55,30,29.90,29.82,0,0,1,0.00
2013-3-23,40.8,31.4,24.7,23.6,20.5,17.0,80,64,48,29.95,29.81,0,0,1,0.00
2013-3-24,35.9,31.0,27.8,28.3,23.6,20.2,93,75,55,29.83,29.39,0,0,0,0.00
2013-3-25,34.9,30.8,27.5,28.9,26.0,24.3,94,83,65,29.83,29.41,0,0,0,0.01
2013-3-26,38.2,33.6,30.6,28.6,26.5,19.0,89,76,48,30.06,29.83,0,0,1,0.00
2013-3-27,40.8,34.7,28.4,26.6,23.3,18.7,83,65,44,30.14,30.06,5,0,7,0.00
2013-3-28,49.1,37.1,26.1,30.0,24.0,19.3,85,62,33,30.18,30.11,0,0,0,0.00
2013-3-29,52.6,40.8,29.7,31.4,23.8,17.8,86,55,27,30.16,30.05,1,0,7,0.00
2013-3-30,55.0,42.2,25.4,34.4,26.9,19.8,83,56,36,30.08,29.75,3,0,8,0.00
2013-3-31,60.2,48.9,39.8,44.1,35.1,25.5,96,62,31,29.74,29.51,6,0,14,0.01
2013-4-1,39.8,34.8,28.4,28.6,18.4,11.4,71,52,35,29.99,29.65,7,0,12,0.00
2013-4-2,43.1,32.5,24.2,18.8,12.1,4.0,67,46,20,30.12,29.99,2,0,4,0.00
2013-4-3,48.5,34.6,20.8,19.8,12.7,7.0,78,44,19,30.28,30.12,2,0,5,0.00
2013-4-4,56.7,41.6,23.5,22.2,17.8,14.1,79,42,21,30.17,29.80,5,0,8,0.00
2013-4-5,52.6,43.4,32.4,30.1,23.6,14.4,73,48,22,30.03,29.78,7,0,8,0.00
2013-4-6,66.3,50.3,31.8,37.8,28.2,22.8,73,45,27,29.99,29.54,17,0,26,0.00
2013-4-7,64.5,55.9,46.5,45.5,39.2,32.2,83,56,30,29.79,29.50,19,3,26,0.02
2013-4-8,72.8,56.4,44.9,54.5,44.3,34.2,91,65,40,29.79,29.56,0,0,0,0.19
2013-4-9,77.2,63.2,50.4,57.9,50.3,42.8,80,64,45,29.81,29.65,0,0,0,0.00
2013-4-10,68.3,55.1,45.8,61.2,50.9,43.0,92,86,70,29.70,29.60,0,0,0,0.46
2013-4-11,48.5,45.7,42.2,46.9,43.9,41.0,96,93,92,29.72,29.40,11,0,11,0.77
2013-4-12,43.3,39.8,37.3,42.2,33.9,29.3,96,80,68,29.70,29.41,27,7,27,0.07
2013-4-13,45.1,39.4,33.4,34.4,30.5,25.6,89,71,52,29.83,29.71,0,0,0,0.00
2013-4-14,66.3,50.6,38.3,48.1,39.5,32.5,87,67,48,29.85,29.61,21,4,21,0.00
2013-4-15,65.0,59.6,54.8,54.4,49.4,42.7,83,69,55,29.72,29.61,13,2,20,0.00
2013-4-16,59.2,48.1,43.2,54.4,40.9,33.5,94,77,55,30.06,29.69,13,4,17,0.49
2013-4-17,56.6,50.2,44.8,51.1,42.6,35.6,93,75,65,30.07,29.74,0,0,0,0.56
2013-4-18,73.2,59.3,47.3,63.4,55.8,43.4,96,88,69,29.72,29.35,17,2,25,1.31
2013-4-19,54.7,38.8,35.5,52.7,31.6,27.9,93,76,67,29.73,29.34,21,1,30,0.59
2013-4-20,44.2,36.7,31.5,28.8,23.4,16.8,83,60,34,30.27,29.74,0,0,0,0.00
2013-4-21,51.7,40.7,27.8,30.0,21.1,15.4,66,47,26,30.39,30.22,0,0,0,0.00
2013-4-22,66.9,51.6,34.6,36.6,30.9,27.0,81,50,24,30.22,29.93,0,0,0,0.00
2013-4-23,67.4,55.3,41.3,54.1,43.9,35.3,94,67,48,29.93,29.63,0,0,0,0.95
2013-4-24,45.7,39.9,35.5,39.6,32.3,26.1,93,76,48,30.02,29.64,0,0,0,0.19
2013-4-25,49.9,43.6,37.3,35.1,30.0,22.8,78,60,36,30.18,29.97,0,0,0,0.00
2013-4-26,65.2,49.4,32.1,39.1,33.0,28.1,87,56,30,30.24,30.14,3,0,5,0.00
2013-4-27,69.8,56.1,38.5,47.8,37.6,29.7,86,54,24,30.15,29.84,12,1,17,0.00
2013-4-28,59.5,55.9,52.3,53.9,51.4,47.7,92,85,72,29.84,29.64,7,0,8,0.26
2013-4-29,69.3,60.4,52.9,53.4,51.5,48.7,96,74,51,29.78,29.69,0,0,8,0.00
2013-4-30,81.6,67.9,55.4,58.1,53.6,48.9,79,62,43,29.81,29.71,12,2,17,0.00
2013-5-1,85.3,73.2,56.2,54.8,51.6,45.7,79,49,27,29.96,29.81,12,2,16,0.00
2013-5-2,81.4,70.6,56.7,54.7,52.1,48.3,76,54,33,29.98,29.87,4,0,6,0.00
2013-5-3,77.7,65.1,49.1,57.0,50.9,44.3,85,62,42,29.89,29.74,0,0,0,0.00
2013-5-4,73.0,65.3,58.7,51.0,41.4,35.9,75,43,27,29.82,29.76,0,0,0,0.00
2013-5-5,72.5,61.6,52.2,51.2,45.8,42.1,81,58,37,29.83,29.78,0,0,0,0.00
2013-5-6,75.6,63.7,51.9,51.2,45.6,39.8,68,53,36,29.82,29.75,0,0,0,0.00
2013-5-7,78.5,65.8,52.0,53.5,50.5,46.7,85,60,33,29.83,29.77,0,0,0,0.00
2013-5-8,80.3,66.9,52.2,54.9,51.0,43.5,89,60,29,29.83,29.76,0,0,0,0.00
2013-5-9,79.9,63.3,51.0,57.2,53.0,47.1,92,72,32,29.80,29.67,0,0,0,0.12
2013-5-10,64.7,56.8,43.1,59.8,52.1,40.8,94,84,69,29.75,29.59,13,1,20,0.28
2013-5-11,57.5,46.6,41.6,50.2,41.0,31.4,97,82,56,29.83,29.65,26,6,30,0.06
2013-5-12,51.7,43.5,36.5,33.5,28.2,23.6,79,56,35,29.95,29.83,0,0,0,0.00
2013-5-13,61.8,49.1,34.3,35.6,25.7,13.6,85,46,16,30.01,29.91,0,0,0,0.00
2013-5-14,87.4,68.9,51.7,59.0,43.0,22.5,58,40,25,29.91,29.53,17,1,22,0.00
2013-5-15,86.3,75.9,65.2,58.7,50.5,40.8,63,43,21,29.63,29.50,0,0,0,0.00
2013-5-16,85.1,70.1,54.8,54.5,44.7,34.5,85,47,17,29.77,29.62,7,0,10,0.00
2013-5-17,83.6,67.3,55.6,59.7,51.5,44.5,83,59,30,29.87,29.77,8,1,11,0.00
2013-5-18,82.2,69.0,58.4,59.9,50.9,40.3,78,53,41,29.91,29.78,0,0,0,0.00
2013-5-19,88.0,74.7,59.9,62.7,57.0,49.5,80,55,36,29.80,29.63,0,0,0,0.00
2013-5-20,87.6,78.4,70.3,67.5,63.9,60.1,87,63,42,29.69,29.59,0,0,0,0.00
2013-5-21,84.5,74.4,63.9,66.6,60.5,54.0,92,64,36,29.63,29.51,0,0,0,0.28
2013-5-22,77.7,69.4,64.2,62.5,59.6,52.3,87,72,48,29.57,29.48,0,0,0,0.04
2013-5-23,64.5,53.7,43.6,56.9,48.6,38.8,92,83,75,30.02,29.56,20,4,24,0.06
2013-5-24,59.9,49.6,38.8,39.7,36.1,31.7,90,63,35,30.21,30.02,0,0,0,0.00
2013-5-25,64.2,52.3,38.5,45.4,38.3,33.4,89,62,38,30.21,30.08,6,0,7,0.00
2013-5-26,70.6,59.5,43.5,51.1,40.9,36.5,86,54,30,30.11,29.98,3,0,5,0.00
2013-5-27,67.1,58.0,49.9,60.1,53.2,47.1,94,84,64,29.99,29.70,0,0,0,1.08
2013-5-28,79.8,71.1,61.3,66.2,63.6,59.9,98,79,62,29.74,29.62,0,0,0,0.23
2013-5-29,84.0,75.3,68.3,64.3,61.6,58.0,77,63,47,29.79,29.68,10,0,14,0.00
2013-5-30,86.3,78.2,70.4,66.2,62.7,58.8,74,60,45,29.82,29.69,0,0,0,0.00
2013-5-31,77.7,70.7,64.2,67.0,63.8,60.0,98,79,64,29.76,29.63,13,2,20,2.46
2013-6-1,74.0,68.4,63.5,69.1,62.1,58.1,100,81,62,29.67,29.53,0,0,0,0.83
2013-6-2,65.8,59.2,48.5,58.2,52.3,39.2,89,78,65,29.85,29.55,17,1,19,0.00
2013-6-3,68.3,55.6,43.3,47.9,41.9,37.1,91,63,35,29.93,29.84,0,0,0,0.00
2013-6-4,76.1,63.7,47.9,50.0,44.8,39.1,88,55,27,29.98,29.90,0,0,0,0.00
2013-6-5,80.7,68.7,55.0,51.6,46.7,41.1,67,47,30,29.92,29.72,0,0,0,0.00
2013-6-6,75.8,65.5,58.6,53.5,48.3,37.2,71,55,38,29.74,29.62,0,0,0,0.00
2013-6-7,72.1,64.1,57.6,56.0,52.6,49.3,88,68,45,29.72,29.66,0,0,2,0.00
2013-6-8,80.1,67.7,54.4,57.3,51.4,46.0,87,59,32,29.81,29.72,14,0,14,0.00
2013-6-9,84.5,72.7,62.1,63.6,57.5,47.1,89,62,29,29.83,29.66,3,0,8,0.18
2013-6-10,77.2,68.7,63.2,65.1,62.4,57.4,97,82,52,29.66,29.56,0,0,0,0.56
2013-6-11,84.9,69.9,60.5,67.7,62.0,57.9,100,79,41,29.76,29.65,3,0,6,0.05
2013-6-12,88.4,75.2,66.0,72.6,68.1,63.6,100,80,53,29.71,29.41,0,0,1,1.43
2013-6-13,74.2,67.4,58.9,66.9,56.7,49.2,100,71,43,29.80,29.40,0,0,0,0.15
2013-6-14,79.4,66.1,54.2,59.5,54.3,50.8,90,68,38,29.91,29.79,2,0,10,0.00
2013-6-15,77.2,67.5,59.9,66.4,60.6,56.3,91,79,55,29.89,29.73,0,0,0,0.07
2013-6-16,80.1,72.8,66.8,66.0,63.5,60.7,85,73,58,29.75,29.69,1,0,5,0.00
2013-6-17,86.3,76.1,67.3,68.3,60.5,48.4,93,63,28,29.76,29.68,0,0,0,0.00
2013-6-18,77.7,70.4,63.2,61.8,58.6,54.4,86,67,48,29.84,29.67,5,0,5,0.00
2013-6-19,80.5,68.8,55.6,57.9,50.5,46.5,75,54,33,29.95,29.83,2,0,5,0.00
2013-6-20,86.1,71.7,59.8,63.7,58.3,52.2,87,64,44,30.00,29.91,0,0,0,0.00
2013-6-21,88.6,76.4,68.3,65.0,59.7,53.4,82,59,31,29.98,29.75,0,0,0,0.04
2013-6-22,86.1,75.2,68.9,71.7,66.2,62.3,84,74,61,29.91,29.79,0,0,0,0.00
2013-6-23,86.1,75.8,66.0,68.7,64.9,62.0,88,71,47,29.90,29.79,0,0,0,0.00
2013-6-24,85.7,74.8,65.5,68.8,65.6,61.6,91,75,52,29.91,29.75,6,0,8,0.62
2013-6-25,87.6,76.9,67.3,72.1,67.3,62.5,91,74,52,29.81,29.62,6,0,8,0.01
2013-6-26,83.4,72.6,66.8,70.8,66.7,62.5,92,82,58,29.72,29.54,6,0,7,0.56
2013-6-27,84.7,73.9,68.1,69.3,67.7,64.9,100,82,58,29.59,29.49,6,0,7,0.08
2013-6-28,80.1,71.0,63.7,66.3,61.3,54.0,90,73,42,29.49,29.39,6,0,7,0.05
2013-6-29,78.3,66.7,61.5,63.6,61.4,58.8,96,84,56,29.51,29.37,0,0,0,0.02
2013-6-30,77.2,67.9,62.6,62.3,59.6,55.2,92,76,48,29.74,29.52,0,0,0,0.08
2013-7-1,74.9,66.2,59.9,60.5,55.6,48.1,84,69,58,29.83,29.72,0,0,0,0.00
2013-7-2,66.6,62.8,58.0,62.9,57.6,50.6,93,84,60,29.85,29.79,0,0,0,0.16
2013-7-3,78.8,70.5,64.8,64.3,62.5,59.5,94,77,55,29.90,29.80,0,0,0,0.00
2013-7-4,83.0,71.1,57.8,67.7,59.8,54.1,96,71,38,29.95,29.88,0,0,0,0.01
2013-7-5,84.7,73.5,64.2,66.2,64.0,61.3,92,74,48,29.93,29.85,0,0,0,0.00
2013-7-6,77.4,72.2,68.8,68.4,66.0,63.0,90,81,67,29.90,29.81,0,0,0,0.02
2013-7-7,82.0,73.5,65.6,68.7,66.0,63.2,93,78,58,29.88,29.79,0,0,0,0.00
2013-7-8,82.6,76.1,70.9,72.5,68.1,65.7,91,76,66,29.89,29.78,0,0,0,0.13
2013-7-9,84.9,79.3,73.2,74.7,71.7,69.9,90,78,65,29.82,29.70,0,0,0,0.00
2013-7-10,82.2,75.3,64.5,73.9,68.2,55.7,92,79,61,29.80,29.64,0,0,0,0.13
2013-7-11,79.0,68.2,57.0,60.9,54.3,48.9,88,63,38,29.89,29.80,0,0,0,0.00
2013-7-12,83.6,69.8,56.0,59.8,55.1,51.9,88,63,34,29.94,29.87,0,0,0,0.00
2013-7-13,86.7,73.4,56.5,64.4,59.7,53.5,91,65,41,29.96,29.91,0,0,0,0.00
2013-7-14,92.9,78.6,64.7,70.6,66.3,62.1,93,69,40,30.01,29.95,0,0,0,0.00
2013-7-15,93.2,81.6,70.8,72.6,70.3,67.8,92,71,46,30.08,30.00,0,0,0,0.00
2013-7-16,91.6,81.9,70.6,72.3,68.5,64.8,92,66,43,30.14,30.06,0,0,0,0.00
2013-7-17,92.1,82.1,71.6,71.6,69.1,66.6,88,67,45,30.13,29.98,0,0,2,0.00
2013-7-18,92.5,83.3,74.6,72.7,70.4,68.0,86,67,45,30.00,29.79,0,0,0,0.00
2013-7-19,91.8,83.7,75.3,72.5,71.2,69.3,86,68,50,29.81,29.60,0,0,0,0.00
2013-7-20,86.5,80.0,72.8,71.8,66.7,55.7,89,66,38,29.72,29.58,0,0,0,0.01
2013-7-21,89.9,77.6,64.0,70.3,63.4,56.6,88,64,33,29.77,29.67,0,0,1,0.00
2013-7-22,87.0,75.9,66.9,68.8,65.6,61.6,93,72,44,29.69,29.58,0,0,0,0.14
2013-7-23,80.7,72.3,59.3,67.2,62.3,51.8,90,71,54,29.72,29.52,6,0,6,0.00
2013-7-24,74.9,62.9,50.7,53.3,49.3,45.3,89,64,38,29.85,29.73,2,0,2,0.00
2013-7-25,82.0,67.3,51.7,55.6,52.0,48.9,91,62,33,29.93,29.85,2,0,3,0.00
2013-7-26,77.7,69.4,59.9,60.6,56.1,52.6,78,64,45,29.90,29.72,0,0,1,0.01
2013-7-27,72.1,66.4,57.6,63.8,56.8,47.8,89,72,55,29.74,29.64,2,0,5,0.00
2013-7-28,68.6,60.2,50.2,49.7,47.2,43.9,85,64,42,29.84,29.71,5,0,10,0.00
2013-7-29,74.4,63.3,52.8,56.2,51.0,46.7,84,65,48,30.00,29.84,7,0,7,0.00
2013-7-30,77.4,66.2,52.2,60.7,55.8,49.7,92,71,45,30.02,29.90,0,0,1,0.00
2013-7-31,71.5,67.0,64.3,67.9,63.9,59.4,94,90,76,29.90,29.75,0,0,0,0.32
2013-8-1,78.3,69.1,61.8,65.4,58.3,49.8,100,73,38,29.80,29.75,0,0,0,0.01
2013-8-2,80.9,67.1,58.3,68.2,60.6,53.5,95,80,62,29.79,29.64,1,0,1,2.26
2013-8-3,77.7,68.4,61.6,66.1,59.3,47.5,100,76,41,29.90,29.75,0,0,0,0.15
2013-8-4,75.1,65.7,54.7,57.4,53.3,48.1,92,67,40,29.99,29.90,0,0,0,0.00
2013-8-5,77.4,66.7,56.2,60.7,56.6,52.7,89,71,50,29.94,29.75,0,0,0,0.00
2013-8-6,80.3,71.0,63.5,67.7,63.2,57.4,86,77,63,29.75,29.69,0,0,0,0.00
2013-8-7,84.1,74.9,68.3,71.0,68.4,66.0,93,81,62,29.72,29.64,0,0,0,0.11
2013-8-8,79.0,71.0,65.6,66.9,64.9,62.0,96,82,65,29.79,29.72,0,0,0,0.01
2013-8-9,81.1,71.2,62.1,64.1,59.9,54.7,89,70,44,29.83,29.76,0,0,0,0.00
2013-8-10,81.6,73.2,65.0,65.2,62.1,59.4,87,69,49,29.91,29.83,0,0,0,0.00
2013-8-11,81.2,70.5,59.3,63.0,59.0,54.0,92,69,42,29.94,29.86,0,0,0,0.00
2013-8-12,82.6,73.4,63.9,67.5,62.7,59.5,87,70,54,29.88,29.67,0,0,0,0.00
2013-8-13,67.9,63.6,55.6,63.1,52.5,43.1,93,70,41,29.93,29.70,0,0,0,0.01
2013-8-14,70.9,58.6,48.6,50.1,46.8,43.5,85,67,43,30.03,29.94,0,0,0,0.00
2013-8-15,76.3,61.4,45.4,54.7,48.5,43.2,92,67,34,30.01,29.92,1,0,1,0.00
2013-8-16,80.1,67.2,55.7,57.6,54.1,47.0,92,66,35,30.00,29.94,0,0,0,0.00
2013-8-17,81.4,66.7,52.2,59.1,53.9,49.9,93,68,36,30.05,29.97,0,0,0,0.00
2013-8-18,86.1,70.1,55.0,62.3,56.2,52.4,93,66,34,30.01,29.91,0,0,0,0.00
2013-8-19,83.0,71.0,56.9,62.8,59.2,54.3,92,69,43,29.94,29.85,0,0,0,0.00
2013-8-20,87.8,73.7,59.9,66.0,61.8,56.0,90,69,40,29.96,29.88,0,0,0,0.00
2013-8-21,86.7,77.0,67.4,68.1,64.4,60.9,87,67,44,29.93,29.82,0,0,0,0.00
2013-8-22,74.6,71.3,68.4,68.3,66.1,64.4,93,84,71,29.92,29.80,0,0,0,0.14
2013-8-23,84.3,71.8,61.8,65.3,61.2,54.9,96,72,41,29.98,29.89,0,0,1,0.00
2013-8-24,85.5,70.1,54.1,58.6,52.9,46.0,92,60,27,30.10,29.98,3,0,5,0.00
2013-8-25,86.3,72.5,56.0,62.5,58.0,52.6,91,64,38,30.10,29.99,1,0,3,0.00
2013-8-26,87.0,76.5,66.1,68.7,64.1,57.5,77,66,49,30.01,29.85,1,0,1,0.00
2013-8-27,90.1,79.6,71.6,72.9,69.4,67.2,86,72,50,29.85,29.70,0,0,1,0.00
2013-8-28,83.8,78.0,70.4,72.1,68.5,64.7,92,73,62,29.81,29.67,0,0,5,0.00
2013-8-29,91.4,77.3,67.9,74.6,67.0,61.1,100,75,38,29.88,29.79,0,0,3,0.00
2013-8-30,91.4,77.4,63.1,71.7,66.1,60.1,93,70,45,29.79,29.54,1,0,2,0.01
2013-8-31,81.8,73.4,67.4,72.4,68.1,64.5,93,84,66,29.67,29.53,0,0,4,0.43
2013-9-1,80.7,72.5,65.6,69.8,66.9,63.2,94,83,64,29.62,29.56,0,0,2,0.00
2013-9-2,78.3,71.2,58.9,68.5,61.4,53.7,93,73,45,29.77,29.54,3,0,5,0.01
2013-9-3,73.7,62.4,52.5,56.8,53.1,50.0,92,73,49,29.89,29.77,3,0,5,0.00
2013-9-4,81.1,66.1,51.1,58.3,54.6,49.2,95,70,37,29.95,29.87,1,0,2,0.01
2013-9-5,80.3,67.7,56.6,59.5,53.0,46.6,92,63,34,30.04,29.92,1,0,2,0.00
2013-9-6,83.4,67.2,48.3,58.2,50.4,43.6,86,58,31,30.07,29.87,1,0,2,0.00
2013-9-7,86.7,73.9,62.6,66.8,59.6,52.8,83,63,36,29.86,29.71,1,0,1,0.00
2013-9-8,82.6,72.1,64.0,66.4,63.8,61.2,92,76,57,29.82,29.73,0,0,1,0.00
2013-9-9,92.5,77.4,64.7,70.9,65.4,59.0,87,68,45,29.81,29.67,1,0,1,0.00
2013-9-10,95.9,83.9,73.7,71.0,65.6,55.9,87,59,27,29.86,29.72,1,0,1,0.00
2013-9-11,94.3,80.9,71.5,68.6,65.2,55.9,86,63,30,29.88,29.75,1,0,1,0.00
2013-9-12,81.4,71.3,60.5,68.4,60.5,48.8,96,72,33,29.83,29.65,1,0,1,0.48
2013-9-13,64.2,56.8,49.6,51.5,43.5,37.6,83,63,38,29.96,29.83,1,0,2,0.00
2013-9-14,72.3,55.2,39.6,48.5,39.1,31.1,94,62,24,30.02,29.90,0,0,1,0.00
2013-9-15,69.1,57.9,45.7,57.0,47.8,40.1,92,71,47,29.92,29.82,2,0,5,0.12
2013-9-16,69.6,59.3,52.6,55.3,50.8,45.3,93,76,45,30.14,29.92,2,0,6,0.00
2013-9-17,74.6,58.8,45.5,50.4,46.6,42.1,89,66,39,30.17,29.98,2,0,3,0.00
2013-9-18,82.0,67.7,54.4,64.1,54.1,43.9,90,64,42,29.98,29.79,1,0,2,0.06
2013-9-19,77.4,69.5,64.7,69.8,66.2,63.5,100,89,72,29.84,29.69,0,0,0,0.89
2013-9-20,73.9,71.0,64.0,68.8,65.4,55.9,93,83,72,29.70,29.58,0,0,0,0.03
2013-9-21,66.9,58.9,50.8,55.8,49.0,43.3,93,71,46,29.73,29.58,0,0,0,0.00
2013-9-22,65.3,55.7,48.8,50.3,45.0,40.9,92,70,43,29.86,29.73,0,0,0,0.00
2013-9-23,71.8,55.5,40.9,46.1,43.0,38.8,92,67,35,29.95,29.87,0,0,0,0.00
2013-9-24,73.0,58.0,45.8,47.3,44.5,42.1,88,64,34,29.92,29.76,0,0,0,0.00
2013-9-25,76.0,60.6,47.9,52.3,47.6,44.7,93,66,35,29.78,29.72,0,0,0,0.00
2013-9-26,81.6,62.0,47.0,59.5,48.3,45.0,98,67,30,29.90,29.77,0,0,0,0.00
2013-9-27,80.9,64.0,44.6,50.3,45.1,37.3,87,54,22,30.00,29.90,0,0,0,0.00
2013-9-28,82.2,67.8,52.9,55.3,51.6,49.1,88,60,33,29.96,29.79,0,0,0,0.00
2013-9-29,69.3,63.1,52.6,59.5,54.0,48.6,93,74,50,29.82,29.75,0,0,0,0.14
2013-9-30,72.7,58.2,44.6,56.1,50.9,43.0,98,79,47,29.84,29.74,0,0,0,0.00
2013-10-1,74.7,65.2,59.6,61.0,59.6,54.7,98,83,60,29.84,29.77,0,0,0,0.01
2013-10-2,80.7,69.5,61.8,67.1,63.1,60.0,100,82,55,29.90,29.81,0,0,0,0.00
2013-10-3,79.8,69.8,62.3,67.3,63.8,59.4,94,82,57,29.83,29.72,0,0,0,0.15
2013-10-4,84.0,74.1,66.0,67.9,64.0,60.7,86,72,49,29.81,29.75,0,0,0,0.00
2013-10-5,79.8,70.7,66.0,70.8,66.2,62.8,92,86,68,29.79,29.65,0,0,0,0.26
2013-10-6,67.3,58.7,46.7,64.3,52.1,37.9,96,80,50,29.67,29.51,0,0,0,0.41
2013-10-7,61.6,50.5,44.6,46.4,41.6,38.2,85,73,42,29.94,29.60,0,0,0,0.00
2013-10-8,75.1,59.3,47.4,48.9,45.3,42.1,89,63,34,30.05,29.95,0,0,0,0.00
2013-10-9,73.7,57.8,41.3,47.7,42.2,37.7,91,60,28,30.09,29.98,0,0,0,0.00
2013-10-10,76.7,59.1,43.8,50.1,44.7,40.9,92,64,29,30.01,29.90,0,0,0,0.00
2013-10-11,78.1,60.7,44.1,50.8,44.9,40.0,92,61,26,29.94,29.83,0,0,0,0.00
2013-10-12,80.1,64.6,48.2,60.0,51.7,44.2,89,66,37,29.93,29.82,0,0,0,0.00
2013-10-13,65.8,56.3,46.0,58.7,44.0,36.5,94,66,35,30.19,29.93,0,0,0,0.00
2013-10-14,68.3,52.8,39.8,47.6,41.2,37.1,93,68,35,30.22,30.02,0,0,0,0.00
2013-10-15,65.6,56.7,47.9,60.8,51.9,42.8,93,84,74,30.02,29.66,0,0,0,0.01
2013-10-16,63.1,51.5,44.9,59.8,44.5,40.1,89,77,69,29.78,29.67,0,0,0,0.00
2013-10-17,51.1,47.9,42.6,46.4,43.1,38.9,90,83,71,29.77,29.66,0,0,0,0.03
2013-10-18,42.8,42.8,42.8,39.2,39.2,39.2,87,87,87,29.73,29.73,0,0,0,0.00
2013-10-29,55.6,52.1,49.1,40.6,38.4,36.8,72,60,50,30.11,30.01,0,0,0,0.14
2013-10-30,63.1,53.0,40.3,62.8,47.9,36.7,99,83,69,30.01,29.69,0,0,0,0.29
2013-10-31,64.2,60.5,51.6,62.8,58.3,48.8,99,92,89,29.69,29.06,0,0,0,0.85
2013-11-1,51.4,47.5,44.9,48.6,41.4,38.4,90,80,67,29.55,29.16,0,0,0,0.00
2013-11-2,45.8,43.8,41.8,43.0,40.0,35.5,93,87,72,29.93,29.55,0,0,0,0.11
2013-11-3,53.1,43.1,37.0,41.6,36.2,33.9,95,78,49,30.16,29.93,0,0,0,0.00
2013-11-4,55.1,46.8,38.3,40.5,36.1,33.3,84,67,49,30.17,30.04,0,0,0,0.00
2013-11-5,57.3,52.7,49.8,47.6,42.9,40.0,84,69,61,30.15,29.90,0,0,0,0.00
2013-11-6,58.3,51.3,41.2,51.8,45.8,37.6,93,82,57,29.93,29.66,0,0,0,0.16
2013-11-7,46.2,38.9,30.9,37.3,29.1,22.5,86,69,41,30.08,29.91,0,0,0,0.00
2013-11-8,48.8,38.0,28.7,31.6,28.6,26.0,91,71,46,30.18,29.94,0,0,0,0.00
2013-11-9,61.2,50.2,42.2,38.8,33.7,27.7,64,53,40,29.96,29.73,0,0,0,0.00
2013-11-10,48.3,40.6,35.0,35.4,28.2,23.1,75,61,50,30.15,29.86,0,0,0,0.00
2013-11-11,48.0,39.2,28.5,38.6,31.1,22.4,100,74,55,30.21,29.90,0,0,0,0.02
2013-11-12,31.3,27.8,23.3,25.6,20.6,16.6,84,74,64,30.47,30.19,0,0,0,0.00
2013-11-13,37.3,27.8,18.4,19.6,16.8,13.3,82,64,38,30.44,30.11,0,0,0,0.00
2013-11-14,51.9,39.0,29.1,23.6,20.2,17.7,65,49,27,30.12,29.85,0,0,0,0.00
2013-11-15,52.5,45.0,39.5,31.7,26.6,21.8,62,49,37,29.89,29.82,0,0,0,0.00
2013-11-16,58.6,50.2,40.6,55.5,44.8,30.8,90,82,62,29.85,29.54,0,0,0,0.02
2013-11-17,63.4,60.4,52.0,59.9,57.1,52.0,100,89,84,29.55,29.09,0,0,0,0.53
2013-11-18,43.8,39.4,34.0,31.7,28.0,25.9,76,64,52,30.03,29.69,3,0,14,0.00
2013-11-19,44.8,36.0,30.9,27.8,25.4,23.9,77,66,46,30.19,30.02,3,0,7,0.00
2013-11-20,44.2,36.7,28.8,33.4,26.8,22.6,79,68,52,30.18,29.98,5,0,7,0.00
2013-11-21,48.0,45.5,42.2,47.7,40.7,32.5,99,84,63,30.07,29.98,0,0,1,0.61
2013-11-22,48.0,39.8,28.7,47.6,36.2,24.8,100,87,75,30.27,29.97,0,0,0,0.02
2013-11-23,29.8,24.8,20.3,24.9,17.6,11.2,86,74,57,30.45,30.22,12,0,14,0.00
2013-11-24,25.8,20.0,14.0,15.7,8.7,0.8,83,63,36,30.53,30.31,10,1,12,0.00
2013-11-25,30.9,26.2,19.1,23.0,14.4,5.3,78,61,49,30.32,29.97,3,0,12,0.00
2013-11-26,34.4,30.6,27.6,26.7,23.7,19.9,84,75,66,29.99,29.81,1,0,7,0.00
2013-11-27,28.5,23.4,19.5,23.3,17.2,10.0,88,77,65,30.10,29.85,6,0,10,0.00
2013-11-28,34.0,25.9,20.2,17.6,14.2,10.2,72,61,45,30.28,30.05,1,0,5,0.00
2013-11-29,38.6,27.6,14.6,22.3,17.5,10.9,87,67,45,30.48,30.26,3,0,3,0.00
2013-11-30,49.5,37.8,29.3,29.3,24.5,19.7,72,59,42,30.32,29.94,0,0,0,0.00
2013-12-1,44.9,37.1,28.4,33.9,28.2,24.9,88,71,54,29.92,29.82,0,0,0,0.00
2013-12-2,40.8,34.4,28.2,31.5,28.7,24.3,88,80,65,29.83,29.64,0,0,0,0.01
2013-12-3,49.2,42.5,34.3,45.2,39.3,31.2,92,89,82,29.65,29.56,0,0,0,0.07
2013-12-4,59.8,51.3,43.1,55.0,48.8,40.9,100,91,82,29.62,29.42,0,0,0,0.00
2013-12-5,59.8,33.8,24.7,54.1,26.3,15.8,85,74,64,30.05,29.44,0,0,0,0.00
2013-12-6,26.4,24.7,21.6,18.5,16.2,11.7,73,70,65,30.28,30.02,0,0,0,0.00
2013-12-7,24.1,18.0,12.8,11.8,9.4,7.5,79,69,52,30.49,30.27,0,0,0,0.00
2013-12-8,26.9,22.1,14.9,24.4,14.9,8.5,90,74,55,30.42,29.80,0,0,0,0.00
2013-12-9,27.6,21.8,14.6,25.2,14.9,4.5,91,75,62,30.05,29.77,0,0,0,0.00
2013-12-10,24.2,14.7,2.6,10.6,3.5,-5.3,73,61,51,30.15,29.92,0,0,0,0.00
2013-12-11,22.4,16.1,4.3,16.5,9.1,-5.3,86,74,60,30.38,30.13,0,0,0,0.00
2013-12-12,23.0,9.5,-3.3,9.6,-0.9,-9.9,74,63,48,30.40,30.11,0,0,0,0.00
2013-12-13,33.7,23.7,14.3,25.0,13.9,3.9,88,66,52,30.13,29.95,0,0,0,0.01
2013-12-14,28.5,25.6,21.6,26.2,23.2,17.8,92,90,85,29.97,29.65,0,0,0,0.00
2013-12-15,25.4,15.9,10.0,22.1,10.6,4.2,88,80,73,29.97,29.75,0,0,0,0.00
2013-12-16,20.2,15.7,9.7,16.4,10.7,4.5,89,80,71,30.01,29.85,0,0,0,0.00
2013-12-17,27.2,21.1,16.9,23.9,17.9,14.0,90,87,77,29.93,29.81,0,0,0,0.00
2013-12-18,36.8,23.6,12.4,22.6,14.4,7.4,81,68,55,30.07,29.75,0,0,0,0.00
2013-12-19,43.9,40.3,36.3,39.0,32.4,20.5,83,73,56,29.80,29.66,0,0,0,0.09
2013-12-20,52.6,45.7,39.6,52.6,44.7,37.9,100,96,83,29.67,29.51,0,0,0,0.24
2013-12-21,43.2,35.4,33.8,39.3,35.2,33.0,100,99,95,29.66,29.30,0,0,0,0.84
2013-12-22,35.9,33.9,29.0,35.0,32.4,25.4,100,94,85,29.87,29.30,0,0,0,0.06
2013-12-23,29.4,21.9,7.6,25.4,15.7,1.2,86,77,60,30.27,29.86,0,0,0,0.00
2013-12-24,18.1,9.5,2.0,10.5,2.2,-5.6,78,72,64,30.43,30.27,0,0,0,0.00
2013-12-25,26.7,22.9,16.9,23.9,16.1,9.9,89,75,65,30.32,29.95,0,0,0,0.00
2013-12-26,33.5,25.9,15.6,25.8,19.1,10.0,91,76,66,30.16,29.93,0,0,0,0.00
2013-12-27,42.6,35.3,28.1,31.2,27.5,23.4,83,73,62,30.16,29.99,0,0,0,0.00
2013-12-28,48.8,40.8,35.6,34.8,30.8,28.1,77,68,56,29.99,29.73,0,0,0,0.00
2013-12-29,39.9,33.4,22.2,31.3,26.1,17.3,86,75,63,29.91,29.61,0,0,0,0.00
2013-12-30,23.2,16.9,13.3,17.3,9.1,6.8,81,71,61,30.14,29.91,0,0,0,0.00
2013-12-31,16.2,13.4,7.0,11.9,7.9,2.4,84,78,69,30.22,30.00,0,0,0,0.00
2014-1-1,21.8,18.4,15.2,16.3,13.5,11.0,84,81,78,30.14,29.96,0,0,0,0.00
2014-1-2,15.6,12.3,4.8,11.2,5.9,-5.7,85,76,56,30.22,29.86,0,0,0,0.00